Location: Ermatingen
(47.6706°N, 9.0857°E)
Time: 09:10:03
(UTC+00:00)

CZ-2C R/B - Pass Details

Date: 18 September 2020
Orbit: 785 x 870 km, 98.2° (Epoch: 27 October)

Event Time Altitude Azimuth Distance (km) Brightness Sun altitude
Rises 19:16:21 0° 13° (NNE) 3,410 6.0 -18.3°
Reaches altitude 10° 19:18:43 10° 14° (NNE) 2,482 5.3 -18.7°
Maximum altitude 19:24:16 89° 101° (E) 866 2.7 -19.6°
Drops below altitude 10° 19:29:52 10° 195° (SSW) 2,504 5.0 -20.4°
Sets 19:32:14 0° 196° (SSW) 3,441 5.8 -20.8°
